| time (UTC) | temp C | wind direction | speed KPH | gust KPH | rain 1hr cm | rain 24hr cm | rain mn cm | humidity % | barometer mb |
| 20260503014211 | 24 | 0 | 1.6 | 0.0 | 0.00 | 0.00 | 0.00 | 88 | 1011.0 |
| 20260503014111 | 24 | 0 | 1.6 | 0.0 | 0.00 | 0.00 | 0.00 | 88 | 1011.0 |
| 20260503012210 | 21 | 180 | 12.9 | 0.0 | 0.00 | 0.00 | 0.00 | 70 | 1011.0 |
| 20260503012110 | 21 | 180 | 12.9 | 0.0 | 0.00 | 0.00 | 0.00 | 70 | 1011.0 |
| 20260503010209 | 22 | 180 | 12.9 | 0.0 | 0.00 | 0.00 | 0.00 | 70 | 1011.0 |
| 20260503010109 | 22 | 180 | 12.9 | 0.0 | 0.00 | 0.00 | 0.00 | 70 | 1011.0 |
| 20260503004209 | 22 | 180 | 12.9 | 0.0 | 0.00 | 0.00 | 0.00 | 70 | 1011.0 |
| 20260503004109 | 22 | 180 | 12.9 | 0.0 | 0.00 | 0.00 | 0.00 | 70 | 1011.0 |
| 20260503002209 | 23 | 180 | 12.9 | 0.0 | 0.00 | 0.00 | 0.00 | 70 | 1010.0 |
| 20260503002108 | 23 | 180 | 12.9 | 0.0 | 0.00 | 0.00 | 0.00 | 70 | 1010.0 |
| 20260503000208 | 23 | 180 | 12.9 | 0.0 | 0.00 | 0.00 | 0.00 | 70 | 1010.0 |
| 20260503000108 | 23 | 180 | 12.9 | 0.0 | 0.00 | 0.00 | 0.00 | 70 | 1010.0 |
| 20260502234207 | 24 | 180 | 12.9 | 0.0 | 0.00 | 0.00 | 0.00 | 70 | 1010.0 |
| 20260502234107 | 24 | 180 | 12.9 | 0.0 | 0.00 | 0.00 | 0.00 | 70 | 1010.0 |
| 20260502232207 | 25 | 180 | 12.9 | 0.0 | 0.00 | 0.00 | 0.00 | 70 | 1009.0 |
| 20260502232107 | 25 | 180 | 12.9 | 0.0 | 0.00 | 0.00 | 0.00 | 70 | 1009.0 |
| 20260502230206 | 25 | 180 | 12.9 | 0.0 | 0.00 | 0.00 | 0.00 | 70 | 1009.0 |
| 20260502230106 | 25 | 180 | 12.9 | 0.0 | 0.00 | 0.00 | 0.00 | 70 | 1009.0 |
| 20260502224206 | 26 | 180 | 12.9 | 0.0 | 0.00 | 0.00 | 0.00 | 70 | 1009.0 |
| 20260502224106 | 26 | 180 | 12.9 | 0.0 | 0.00 | 0.00 | 0.00 | 70 | 1009.0 |
| 20260502222205 | 26 | 180 | 12.9 | 0.0 | 0.00 | 0.00 | 0.00 | 70 | 1008.0 |
| 20260502222105 | 26 | 180 | 12.9 | 0.0 | 0.00 | 0.00 | 0.00 | 70 | 1008.0 |
| 20260502220205 | 27 | 180 | 12.9 | 0.0 | 0.00 | 0.00 | 0.00 | 70 | 1007.0 |
| 20260502220104 | 27 | 180 | 12.9 | 0.0 | 0.00 | 0.00 | 0.00 | 70 | 1007.0 |
| 20260502214204 | 27 | 180 | 12.9 | 0.0 | 0.03 | 0.00 | 0.00 | 70 | 1007.0 |
| 20260502214104 | 27 | 180 | 12.9 | 0.0 | 0.03 | 0.00 | 0.00 | 70 | 1007.0 |
| 20260502212203 | 28 | 180 | 12.9 | 0.0 | 0.00 | 0.00 | 0.00 | 70 | 1007.0 |
| 20260502212103 | 28 | 180 | 12.9 | 0.0 | 0.00 | 0.00 | 0.00 | 70 | 1007.0 |
| 20260502210203 | 28 | 210 | 8.0 | 0.0 | 0.05 | 0.00 | 0.00 | 70 | 1008.0 |
| 20260502204202 | 29 | 210 | 8.0 | 0.0 | 0.00 | 0.00 | 0.00 | 70 | 1008.0 |
| 20260502204102 | 29 | 210 | 8.0 | 0.0 | 0.00 | 0.00 | 0.00 | 70 | 1008.0 |
| 20260502202202 | 30 | 210 | 8.0 | 0.0 | 0.03 | 0.00 | 0.00 | 70 | 1008.0 |
| 20260502202101 | 30 | 210 | 8.0 | 0.0 | 0.03 | 0.00 | 0.00 | 70 | 1008.0 |
| 20260502200201 | 30 | 210 | 8.0 | 0.0 | 0.10 | 0.00 | 0.00 | 70 | 1008.0 |
| 20260502200101 | 30 | 210 | 8.0 | 0.0 | 0.10 | 0.00 | 0.00 | 70 | 1008.0 |
| 20260502194200 | 26 | 210 | 8.0 | 0.0 | 0.10 | 0.00 | 0.00 | 84 | 1008.0 |
| 20260502194100 | 26 | 210 | 8.0 | 0.0 | 0.10 | 0.00 | 0.00 | 84 | 1008.0 |
| 20260502192200 | 26 | 210 | 8.0 | 0.0 | 0.00 | 0.00 | 0.00 | 84 | 1009.0 |
| 20260502192100 | 26 | 210 | 8.0 | 0.0 | 0.00 | 0.00 | 0.00 | 84 | 1009.0 |
| 20260502190159 | 27 | 180 | 6.4 | 0.0 | 0.08 | 0.00 | 0.00 | 84 | 1009.0 |
| 20260502190059 | 27 | 180 | 6.4 | 0.0 | 0.08 | 0.00 | 0.00 | 84 | 1009.0 |
| 20260502184159 | 27 | 180 | 6.4 | 0.0 | 0.00 | 0.00 | 0.00 | 84 | 1009.0 |
| 20260502184059 | 27 | 180 | 6.4 | 0.0 | 0.00 | 0.00 | 0.00 | 84 | 1009.0 |
| 20260502182158 | 28 | 180 | 6.4 | 0.0 | 0.03 | 0.00 | 0.00 | 84 | 1010.0 |
| 20260502182058 | 28 | 180 | 6.4 | 0.0 | 0.03 | 0.00 | 0.00 | 84 | 1010.0 |
| 20260502180158 | 27 | 0 | 6.4 | 0.0 | 0.00 | 0.00 | 0.00 | 79 | 1009.0 |
| 20260502170157 | 27 | 140 | 6.4 | 0.0 | 0.00 | 0.00 | 0.00 | 83 | 1010.0 |
| 20260502164156 | 27 | 140 | 6.4 | 0.0 | 0.00 | 0.00 | 0.00 | 83 | 1010.0 |
| 20260502164056 | 27 | 140 | 6.4 | 0.0 | 0.00 | 0.00 | 0.00 | 83 | 1010.0 |
| 20260502162156 | 26 | 140 | 6.4 | 0.0 | 0.00 | 0.00 | 0.00 | 78 | 1010.0 |
| 20260502162055 | 26 | 140 | 6.4 | 0.0 | 0.00 | 0.00 | 0.00 | 78 | 1010.0 |
| 20260502160155 | 27 | 10 | 6.4 | 0.0 | 0.00 | 0.00 | 0.00 | 78 | 1010.0 |
| 20260502152154 | 26 | 217 | 6.4 | 4.8 | 0.00 | 0.00 | 0.00 | 87 | 1010.0 |
| 20260502152054 | 26 | 217 | 6.4 | 4.8 | 0.00 | 0.00 | 0.00 | 87 | 1010.0 |
| 20260502150153 | 25 | 0 | 3.2 | 0.0 | 0.00 | 0.00 | 0.00 | 89 | 1010.0 |
| 20260502130151 | 23 | 30 | 8.0 | 0.0 | 0.00 | 0.00 | 0.00 | 94 | 1009.0 |
| 20260502122150 | 22 | 30 | 8.0 | 0.0 | 0.00 | 0.00 | 0.00 | 94 | 1009.0 |
| 20260502122049 | 22 | 30 | 8.0 | 0.0 | 0.00 | 0.00 | 0.00 | 94 | 1009.0 |
| 20260502120149 | 23 | 0 | 3.2 | 0.0 | 0.00 | 0.00 | 0.00 | 94 | 1009.0 |
| 20260502114149 | 22 | 0 | 3.2 | 0.0 | 0.00 | 0.00 | 0.00 | 94 | 1009.0 |
| 20260502114049 | 22 | 0 | 3.2 | 0.0 | 0.00 | 0.00 | 0.00 | 94 | 1009.0 |
| 20260502112148 | 23 | 0 | 3.2 | 0.0 | 0.00 | 0.00 | 0.00 | 94 | 1008.0 |
| 20260502112048 | 23 | 0 | 3.2 | 0.0 | 0.00 | 0.00 | 0.00 | 94 | 1008.0 |
| 20260502110148 | 22 | 315 | 3.2 | 3.2 | 0.00 | 0.00 | 0.00 | 87 | 1009.0 |
| 20260502110048 | 22 | 315 | 3.2 | 3.2 | 0.00 | 0.00 | 0.00 | 87 | 1009.0 |
| 20260502104147 | 22 | 315 | 3.2 | 3.2 | 0.00 | 0.00 | 0.00 | 87 | 1009.0 |
| 20260502104047 | 22 | 315 | 3.2 | 3.2 | 0.00 | 0.00 | 0.00 | 87 | 1009.0 |
| 20260502102147 | 22 | 282 | 1.6 | 1.6 | 0.00 | 0.00 | 0.00 | 87 | 1008.0 |
| 20260502102047 | 22 | 282 | 1.6 | 1.6 | 0.00 | 0.00 | 0.00 | 87 | 1008.0 |
| 20260502100146 | 22 | 282 | 1.6 | 1.6 | 0.00 | 0.00 | 0.00 | 87 | 1008.0 |
| 20260502090145 | 22 | 252 | 1.6 | 1.6 | 0.00 | 0.00 | 0.00 | 87 | 1008.0 |
| 20260502070142 | 22 | 350 | 4.8 | 4.8 | 0.00 | 0.00 | 0.00 | 88 | 1009.0 |
| 20260502070042 | 22 | 350 | 4.8 | 4.8 | 0.00 | 0.00 | 0.00 | 88 | 1009.0 |
| 20260502064142 | 22 | 350 | 4.8 | 4.8 | 0.00 | 0.00 | 0.00 | 89 | 1009.0 |
| 20260502064042 | 22 | 350 | 4.8 | 4.8 | 0.00 | 0.00 | 0.00 | 89 | 1009.0 |
| 20260502062141 | 22 | 321 | 6.4 | 8.0 | 0.00 | 0.00 | 0.00 | 90 | 1010.0 |
| 20260502062041 | 22 | 321 | 6.4 | 8.0 | 0.00 | 0.00 | 0.00 | 90 | 1010.0 |
| 20260502060141 | 22 | 321 | 6.4 | 8.0 | 0.00 | 0.00 | 0.00 | 90 | 1010.0 |
| 20260502060041 | 22 | 321 | 6.4 | 8.0 | 0.00 | 0.00 | 0.00 | 90 | 1010.0 |
| 20260502054140 | 22 | 321 | 6.4 | 8.0 | 0.00 | 0.00 | 0.00 | 91 | 1010.0 |
| 20260502054040 | 22 | 321 | 6.4 | 8.0 | 0.00 | 0.00 | 0.00 | 91 | 1010.0 |
| 20260502052140 | 22 | 292 | 4.8 | 6.4 | 0.00 | 0.00 | 0.00 | 92 | 1010.0 |
| 20260502052040 | 22 | 292 | 4.8 | 6.4 | 0.00 | 0.00 | 0.00 | 92 | 1010.0 |
| 20260502050139 | 22 | 292 | 4.8 | 6.4 | 0.00 | 0.00 | 0.00 | 92 | 1010.0 |
| 20260502050039 | 22 | 292 | 4.8 | 6.4 | 0.00 | 0.00 | 0.00 | 92 | 1010.0 |
| 20260502044139 | 22 | 320 | 8.0 | 0.0 | 0.00 | 0.00 | 0.00 | 94 | 1010.0 |
| 20260502044039 | 22 | 320 | 8.0 | 0.0 | 0.00 | 0.00 | 0.00 | 94 | 1010.0 |
| 20260502042138 | 22 | 320 | 8.0 | 0.0 | 0.00 | 0.00 | 0.00 | 94 | 1010.0 |
| 20260502042038 | 22 | 320 | 8.0 | 0.0 | 0.00 | 0.00 | 0.00 | 94 | 1010.0 |
| 20260502040138 | 23 | 320 | 8.0 | 0.0 | 0.00 | 0.00 | 0.00 | 94 | 1010.0 |
| 20260502040038 | 23 | 320 | 8.0 | 0.0 | 0.00 | 0.00 | 0.00 | 94 | 1010.0 |
| 20260502034137 | 23 | 320 | 8.0 | 0.0 | 0.00 | 0.00 | 0.00 | 94 | 1010.0 |
| 20260502034037 | 23 | 320 | 8.0 | 0.0 | 0.00 | 0.00 | 0.00 | 94 | 1010.0 |
| 20260502032137 | 24 | 320 | 8.0 | 0.0 | 0.00 | 0.00 | 0.00 | 94 | 1009.0 |
| 20260502032037 | 24 | 320 | 8.0 | 0.0 | 0.00 | 0.00 | 0.00 | 94 | 1009.0 |
| 20260502030136 | 22 | 0 | 3.2 | 0.0 | 0.00 | 0.00 | 0.00 | 94 | 1010.0 |
| 20260502030036 | 22 | 0 | 3.2 | 0.0 | 0.00 | 0.00 | 0.00 | 94 | 1010.0 |
| 20260502024136 | 23 | 0 | 3.2 | 0.0 | 0.00 | 0.00 | 0.00 | 94 | 1010.0 |
| 20260502024036 | 23 | 0 | 3.2 | 0.0 | 0.00 | 0.00 | 0.00 | 94 | 1010.0 |
| 20260502022136 | 23 | 0 | 3.2 | 0.0 | 0.05 | 0.00 | 0.00 | 94 | 1009.0 |
| 20260502022035 | 23 | 0 | 3.2 | 0.0 | 0.05 | 0.00 | 0.00 | 94 | 1009.0 |
| 20260502020135 | 24 | 0 | 3.2 | 0.0 | 0.13 | 0.00 | 0.00 | 94 | 1009.0 |
| 20260502020034 | 24 | 0 | 3.2 | 0.0 | 0.13 | 0.00 | 0.00 | 94 | 1009.0 |